Погода в Кандерштеге

Швейцария     46°29′54″N   7°40′19″E
темп.,
°C
ветер,
м/с
пор.,
м/с
влажн.,
%
обл.,
%
осадки,
мм/ч
давл.,
гПа
погр.,
м
25 января, пн
пн2501:00−11ююв339296 0.9 100374
04:00−10ю129688 1.7 100227
07:00−10сз459794 6.9 1004279
10:00−10сз2396100 4.1 1005263
13:00−9з3394100 6.4 1006451
16:00−10с3495100 2.4 1007391
19:00−12зсз2298100 5.4 101256
22:00−12сз2298100 1.9 101664
26 января, вт
вт2601:00−15зюз1297100 2.3 101921
04:00−17ю119438 0.0 102121
07:00−17св029639 0.0 102421
10:00−12ссз1197100 0.1 1024100
13:00−9сз227364 0.1 1023521
16:00−11ссз22920 0.0 1023117
19:00−16всв127514 0.0 102621
22:00−15юв114993 0.0 102721
27 января, ср
ср2701:00−12вюв115095 0.0 102621
04:00−10сз1157100 0.0 102421
07:00−10ююз2285100 0.3 102428
10:00−7ююз2293100 0.8 1022108
13:00−4з2297100 2.0 1021222
16:00−4зсз2398100 1.9 1019189
19:00−4сз2298100 8.3 102192
22:00−4зсз2298100 7.3 102169
28 января, чт
чт2801:00−3зюз2298100 11.9 102074
04:00−3ююз2396100 2.7 101898
07:00−3юз3497100 8.9 1016147
10:00−1з2299100 8.4 101595
13:000зсз3499100 15.7 1015180
16:00−1сз31199100 7.4 1015937
19:00−1зсз3499100 11.3 1017198
22:00−1зюз2398100 2.5 1017149
29 января, пт
пт2901:00−2ю4593100 2.8 1017198
04:00−2ю3490100 0.1 1015122
07:00−2ю3397100 4.2 101398
10:00−1ююз3497100 9.2 1012140
13:000юз3499100 17.3 1011134
16:000юз2399100 5.6 1009129
19:00−1ююз4798100 12.6 1007214
22:00−1ю3398100 7.6 100598